sat.trackr.live / text

‹ back to catalog

STARLINK-36596

NORAD 67670 · 2026-022Y

PAYLOAD ACTIVE UNKNOWN

§ Identity

Operator
Country
US
Launch date
2026-02-02
Launch site
AFWTR
Launch vehicle
Mass (kg)
RCS (m²)

Purposes: comms

External: N2YO · Heavens-Above · Gunter

§ Orbital elements

Epoch: 2026-05-25T02:13:29.202240Z

Period
93.91 min
Inclination
97.2834°
Eccentricity
0.0001759
Mean motion
15.33442806 rev/d
Perigee alt
464.3 km
Apogee alt
466.8 km
Semi-major
6,843.7 km
B*
-2.4967e-4
RAAN
178.3787°
Arg perigee
90.7692°
Mean anomaly
269.3752°
Rev number
1,728

§ Raw data

STARLINK-365961 67670U 26022Y   26145.09269910 -.00008126  00000+0 -24967-3 0  99912 67670  97.2834 178.3787 0001759  90.7692 269.3752 15.33442806 17285

JSON: /api/v1/satellites/67670 · /tle

For live sub-satellite position, see the globe view (requires WebGL).

§ Visibility from observer

Set your observer location to see the next 7 days of passes ≥ 10°. The values pass through the URL so the page stays shareable.

No JS? Fill the form by hand. The geolocation button needs JavaScript.